Weather History for Juan Santamaria, Costa Rica

Change the Weather History Date:

Saturday, November 24, 2012

  Actual Average Record
Temperature  
Mean Temperature 68 °F -  
Max Temperature 75 °F 79 °F - ()
Min Temperature 61 °F 64 °F - ()
Cooling Degree Days 3    
Growing Degree Days 18 (Base 50)    
Moisture  
Dew Point 56 °F    
Average Humidity 65    
Maximum Humidity 77    
Minimum Humidity 45    
Precipitation  
Precipitation 0.00 in 0.07 in - ()
Sea Level Pressure  
Sea Level Pressure 29.99 in    
Wind  
Wind Speed 10 mph ()    
Max Wind Speed 17 mph    
Max Gust Speed 31 mph    
Visibility 8.1 miles    
Events      
T = Trace of Precipitation, MM = Missing Value Source: Averaged Metar Reports

Daily Weather History Graph

Daily Weather History Graph

Search for Another Location

Airport:

Trip Planner

Search our weather history database for the weather conditions in past years. The results will help you decide how hot, cold, wet, or windy it might be!

Date:

Astronomy

Nov. 24, 2012 Rise Set
Actual Time 5:35 AM CST 5:12 PM CST
Civil Twilight 5:12 AM CST 5:34 PM CST
Nautical Twilight 4:46 AM CST 6:00 PM CST
Astronomical Twilight 4:21 AM CST 6:26 PM CST
Moon 2:29 PM CST (11/24) 2:22 AM CST (11/24)
Length of Visible Light 12h 21m
Length of Day
11h 36m
Waxing Gibbous, 87% of the Moon is Illuminated
Nov 24
Waxing Gibbous
Nov 28
Full
Dec 6
Last Quarter
Dec 13
New
Dec 19
First Quarter

Hourly Weather History & Observations

Time (CST) Temp. Dew Point Humidity Pressure Visibility Wind Dir Wind Speed Gust Speed Precip Events Conditions
12:00 AM 64 °F 55 °F 64% 29.94 in 12 mi East 10.4 mph - -   Partly Cloudy
12:00 AM 64.4 °F 55.4 °F 73% 30.05 in - East 10.4 mph 23.0 mph N/A   Clear
1:00 AM 64.4 °F 53.6 °F 68% 30.02 in - East 9.2 mph - N/A   Clear
2:00 AM 64.4 °F 55.4 °F 73% 30.00 in - East 12.7 mph - N/A   Clear
3:00 AM 65 °F 55 °F 63% 29.83 in 12 mi ENE 10.4 mph - -   Partly Cloudy
3:00 AM 64.4 °F 55.4 °F 73% 29.99 in - ENE 10.4 mph - N/A   Clear
4:00 AM 62.6 °F 55.4 °F 77% 29.99 in - NE 12.7 mph - N/A   Clear
5:00 AM 62.6 °F 53.6 °F 72% 30.01 in - ENE 13.8 mph - N/A   Clear
6:00 AM 62 °F 53 °F 65% 29.95 in 12 mi East 8.1 mph - -   Scattered Clouds
6:00 AM 62.6 °F 53.6 °F 72% 30.03 in 6.2 mi East 8.1 mph - N/A   Scattered Clouds
7:00 AM 64.4 °F 53.6 °F 68% 30.06 in - ENE 10.4 mph - N/A   Scattered Clouds
8:00 AM 68.0 °F 53.6 °F 60% 30.07 in 6.2 mi East 10.4 mph - N/A   Partly Cloudy
9:00 AM 71 °F 56 °F 49% 29.92 in 12 mi East 9.2 mph - -   Scattered Clouds
9:00 AM 71.6 °F 55.4 °F 57% 30.07 in 6.2 mi East 9.2 mph - N/A   Partly Cloudy
10:00 AM 71.6 °F 57.2 °F 60% 30.06 in 6.2 mi East 8.1 mph - N/A   Scattered Clouds
11:00 AM 73.4 °F 57.2 °F 57% 30.02 in 6.2 mi ESE 12.7 mph 24.2 mph N/A   Partly Cloudy
12:00 PM 73 °F 56 °F 45% 29.86 in 12 mi ESE 13.8 mph - -   Scattered Clouds
12:00 PM 71.6 °F 55.4 °F 57% 30.01 in 6.2 mi ESE 13.8 mph 26.5 mph N/A   Scattered Clouds
1:00 PM 71.6 °F 57.2 °F 60% 29.99 in 6.2 mi East 11.5 mph 23.0 mph N/A   Mostly Cloudy
2:00 PM 71.6 °F 57.2 °F 60% 29.96 in 6.2 mi East 16.1 mph 31.1 mph N/A   Mostly Cloudy
3:00 PM 72 °F 57 °F 49% 29.83 in 12 mi East 16.1 mph - -   Scattered Clouds
3:00 PM 71.6 °F 57.2 °F 60% 29.95 in 6.2 mi East 16.1 mph - N/A   Scattered Clouds
4:00 PM 68.0 °F 57.2 °F 68% 29.96 in 6.2 mi East 11.5 mph 23.0 mph N/A   Scattered Clouds
5:00 PM 66.2 °F 57.2 °F 73% 29.97 in 6.2 mi East 8.1 mph - N/A   Mostly Cloudy
6:00 PM 66 °F 57 °F 66% 29.92 in 12 mi East 12.7 mph - -   Scattered Clouds
6:00 PM 66.2 °F 57.2 °F 73% 29.98 in 6.2 mi ESE 12.7 mph 28.8 mph N/A   Mostly Cloudy
7:00 PM 66.2 °F 57.2 °F 73% 30.00 in 6.2 mi East 17.3 mph - N/A   Scattered Clouds
8:00 PM 66.2 °F 57.2 °F 73% 30.02 in 6.2 mi East 11.5 mph 23.0 mph N/A   Scattered Clouds
9:00 PM 67 °F 58 °F 66% 29.93 in 12 mi ENE 13.8 mph - -   Scattered Clouds
9:00 PM 68.0 °F 59.0 °F 73% 30.05 in 6.2 mi ENE 13.8 mph - N/A   Scattered Clouds
10:00 PM 68.0 °F 59.0 °F 73% 30.05 in 6.2 mi East 11.5 mph - N/A   Scattered Clouds
11:00 PM 68.0 °F 59.0 °F 73% 30.04 in 6.2 mi East 8.1 mph - N/A   Scattered Clouds